• In Uzbekistan
  • List of Countries
  • For 7 days
  • Water Temperature
  • Weather Map
  • Weather Widgets
  • user-avatar
    Login

    Hourly Weather Stargard Szczeciński

    Today, 31 May, Sunday

    Time Temperature Precipitation Wind Pressure Humidity
    00:00 +8°C° 0 mm 4 mps 764 mmHg 85%
    01:00 +8°C° 0 mm 4 mps 764 mmHg 83%
    02:00 +8°C° 0 mm 4 mps 764 mmHg 83%
    03:00 +8°C° 0 mm 4 mps 763 mmHg 84%
    04:00 +8°C° 0 mm 5 mps 763 mmHg 84%
    05:00 +9°C° 0.1 mm 5 mps 763 mmHg 84%
    06:00 +10°C° 0.1 mm 5 mps 763 mmHg 84%
    07:00 +12°C° 0 mm 4 mps 763 mmHg 83%
    08:00 +13°C° 0 mm 5 mps 763 mmHg 75%
    09:00 +15°C° 0 mm 6 mps 763 mmHg 68%
    10:00 +17°C° 0 mm 6 mps 763 mmHg 60%
    11:00 +19°C° 0 mm 6 mps 763 mmHg 59%
    12:00 +20°C° 0 mm 7 mps 764 mmHg 58%
    13:00 +21°C° 0 mm 6 mps 763 mmHg 59%
    14:00 +20°C° 0 mm 7 mps 763 mmHg 58%
    15:00 +20°C° 0 mm 7 mps 763 mmHg 57%
    16:00 +18°C° 0 mm 7 mps 763 mmHg 57%
    17:00 +17°C° 0 mm 6 mps 763 mmHg 60%
    18:00 +16°C° 0 mm 6 mps 764 mmHg 64%
    19:00 +14°C° 0 mm 5 mps 764 mmHg 68%
    20:00 +12°C° 0 mm 5 mps 765 mmHg 72%
    21:00 +11°C° 0 mm 4 mps 765 mmHg 77%
    22:00 +8°C° 0 mm 4 mps 765 mmHg 82%
    23:00 +9°C° 0 mm 3 mps 766 mmHg 84%

    Tomorrow, 1 June, Monday

    Time Temperature Precipitation Wind Pressure Humidity
    00:00 +8°C° 0 mm 3 mps 766 mmHg 87%
    01:00 +8°C° 0 mm 3 mps 766 mmHg 90%
    02:00 +7°C° 0 mm 3 mps 766 mmHg 90%
    03:00 +7°C° 0 mm 3 mps 766 mmHg 91%
    04:00 +7°C° 0 mm 3 mps 766 mmHg 91%
    05:00 +9°C° 0 mm 3 mps 766 mmHg 84%
    06:00 +11°C° 0 mm 3 mps 766 mmHg 78%
    07:00 +13°C° 0 mm 4 mps 767 mmHg 71%
    08:00 +14°C° 0 mm 4 mps 767 mmHg 65%
    09:00 +17°C° 0 mm 4 mps 767 mmHg 58%
    10:00 +19°C° 0 mm 5 mps 767 mmHg 52%
    11:00 +19°C° 0 mm 5 mps 767 mmHg 51%
    12:00 +20°C° 0 mm 5 mps 767 mmHg 50%
    13:00 +21°C° 0 mm 5 mps 767 mmHg 49%
    14:00 +21°C° 0 mm 5 mps 766 mmHg 51%
    15:00 +20°C° 0 mm 5 mps 766 mmHg 53%
    16:00 +20°C° 0 mm 5 mps 765 mmHg 55%
    17:00 +19°C° 0 mm 5 mps 765 mmHg 61%
    18:00 +17°C° 0 mm 4 mps 765 mmHg 66%
    19:00 +16°C° 0 mm 3 mps 765 mmHg 71%
    20:00 +13°C° 0 mm 3 mps 765 mmHg 77%
    21:00 +12°C° 0 mm 3 mps 765 mmHg 83%
    22:00 +10°C° 0 mm 3 mps 765 mmHg 89%
    23:00 +9°C° 0 mm 3 mps 765 mmHg 90%

    Day after tomorrow, 2 June, Tuesday

    Time Temperature Precipitation Wind Pressure Humidity
    00:00 +9°C° 0 mm 3 mps 765 mmHg 91%
    01:00 +8°C° 0 mm 2 mps 764 mmHg 92%
    02:00 +8°C° 0 mm 2 mps 764 mmHg 93%
    03:00 +8°C° 0 mm 2 mps 764 mmHg 93%
    04:00 +8°C° 0 mm 2 mps 763 mmHg 93%
    05:00 +10°C° 0 mm 2 mps 763 mmHg 87%
    06:00 +12°C° 0 mm 3 mps 763 mmHg 81%
    07:00 +14°C° 0 mm 3 mps 763 mmHg 75%
    08:00 +16°C° 0 mm 3 mps 763 mmHg 69%
    09:00 +18°C° 0 mm 4 mps 763 mmHg 63%
    10:00 +20°C° 0 mm 4 mps 762 mmHg 57%
    11:00 +20°C° 0 mm 4 mps 762 mmHg 56%
    12:00 +20°C° 0 mm 4 mps 762 mmHg 55%
    13:00 +21°C° 0 mm 4 mps 761 mmHg 54%
    14:00 +20°C° 0 mm 4 mps 761 mmHg 58%
    15:00 +19°C° 0 mm 4 mps 760 mmHg 61%
    16:00 +18°C° 0 mm 3 mps 760 mmHg 64%
    17:00 +18°C° 0 mm 3 mps 759 mmHg 67%
    18:00 +17°C° 0 mm 2 mps 759 mmHg 70%
    19:00 +17°C° 0 mm 2 mps 759 mmHg 73%
    20:00 +16°C° 0 mm 2 mps 759 mmHg 74%
    21:00 +15°C° 0 mm 2 mps 758 mmHg 75%
    22:00 +14°C° 0 mm 1 mps 758 mmHg 77%
    23:00 +14°C° 0.1 mm 1 mps 758 mmHg 79%

    3 June, Wednesday

    Time Temperature Precipitation Wind Pressure Humidity
    00:00 +13°C° 0.1 mm 1 mps 758 mmHg 82%
    01:00 +12°C° 0.1 mm 0 mps 757 mmHg 84%
    02:00 +12°C° 0.3 mm 0 mps 757 mmHg 87%
    03:00 +13°C° 0.3 mm 1 mps 756 mmHg 90%
    04:00 +12°C° 0.3 mm 1 mps 756 mmHg 93%
    05:00 +13°C° 0.3 mm 1 mps 756 mmHg 91%
    06:00 +14°C° 0.3 mm 1 mps 756 mmHg 89%
    07:00 +15°C° 0.3 mm 2 mps 755 mmHg 87%
    08:00 +16°C° 0.1 mm 2 mps 755 mmHg 83%
    09:00 +18°C° 0.1 mm 1 mps 755 mmHg 79%
    10:00 +19°C° 0.1 mm 1 mps 755 mmHg 74%
    11:00 +19°C° 0.4 mm 1 mps 754 mmHg 73%
    12:00 +19°C° 0.4 mm 2 mps 754 mmHg 71%
    13:00 +20°C° 0.4 mm 2 mps 754 mmHg 70%
    14:00 +20°C° 0.4 mm 2 mps 753 mmHg 68%
    15:00 +20°C° 0.4 mm 2 mps 753 mmHg 66%
    16:00 +20°C° 0.4 mm 2 mps 753 mmHg 64%
    17:00 +19°C° 0.4 mm 2 mps 752 mmHg 69%
    18:00 +18°C° 0.4 mm 2 mps 752 mmHg 74%
    19:00 +17°C° 0.4 mm 2 mps 752 mmHg 79%
    20:00 +15°C° 0 mm 2 mps 752 mmHg 81%
    21:00 +14°C° 0 mm 2 mps 752 mmHg 83%
    22:00 +12°C° 0 mm 2 mps 752 mmHg 85%
    23:00 +12°C° 0 mm 2 mps 751 mmHg 85%

    4 June, Thursday

    Time Temperature Precipitation Wind Pressure Humidity
    00:00 +12°C° 0 mm 2 mps 751 mmHg 86%
    01:00 +11°C° 0 mm 1 mps 751 mmHg 86%
    02:00 +10°C° 0 mm 2 mps 750 mmHg 88%
    03:00 +12°C° 0 mm 2 mps 750 mmHg 91%
    04:00 +12°C° 0 mm 2 mps 749 mmHg 93%
    05:00 +13°C° 0 mm 2 mps 749 mmHg 90%
    06:00 +13°C° 0 mm 3 mps 748 mmHg 88%
    07:00 +14°C° 0 mm 3 mps 748 mmHg 85%
    08:00 +17°C° 0.1 mm 4 mps 748 mmHg 82%
    09:00 +18°C° 0.1 mm 4 mps 747 mmHg 78%
    10:00 +19°C° 0.1 mm 4 mps 747 mmHg 74%
    11:00 +20°C° 0.3 mm 5 mps 746 mmHg 73%
    12:00 +20°C° 0.3 mm 5 mps 745 mmHg 72%
    13:00 +21°C° 0.3 mm 5 mps 745 mmHg 71%
    14:00 +19°C° 1.9 mm 5 mps 744 mmHg 79%
    15:00 +18°C° 1.9 mm 4 mps 744 mmHg 86%
    16:00 +15°C° 1.9 mm 4 mps 744 mmHg 94%
    17:00 +15°C° 0.5 mm 4 mps 744 mmHg 93%
    18:00 +14°C° 0.5 mm 4 mps 744 mmHg 93%
    19:00 +14°C° 0.5 mm 3 mps 743 mmHg 93%
    20:00 +13°C° 0 mm 4 mps 744 mmHg 94%
    21:00 +13°C° 0 mm 4 mps 744 mmHg 95%
    22:00 +12°C° 0 mm 4 mps 745 mmHg 96%
    23:00 +11°C° 0 mm 4 mps 745 mmHg 94%

    5 June, Friday

    Time Temperature Precipitation Wind Pressure Humidity
    00:00 +9°C° 0 mm 5 mps 746 mmHg 93%
    01:00 +8°C° 0 mm 5 mps 746 mmHg 92%
    02:00 +7°C° 0 mm 5 mps 746 mmHg 93%
    03:00 +6°C° 0 mm 5 mps 746 mmHg 94%
    04:00 +6°C° 0 mm 5 mps 747 mmHg 94%
    05:00 +7°C° 0 mm 5 mps 747 mmHg 89%
    06:00 +8°C° 0 mm 6 mps 747 mmHg 84%
    07:00 +9°C° 0 mm 6 mps 748 mmHg 79%
    08:00 +10°C° 0 mm 6 mps 748 mmHg 73%
    09:00 +13°C° 0 mm 6 mps 748 mmHg 66%
    10:00 +14°C° 0 mm 6 mps 748 mmHg 60%
    11:00 +15°C° 0 mm 6 mps 748 mmHg 57%
    12:00 +15°C° 0 mm 6 mps 748 mmHg 55%
    13:00 +16°C° 0 mm 6 mps 748 mmHg 53%
    14:00 +16°C° 0 mm 5 mps 748 mmHg 54%
    15:00 +17°C° 0 mm 5 mps 748 mmHg 54%
    16:00 +17°C° 0 mm 5 mps 747 mmHg 55%
    17:00 +17°C° 0 mm 4 mps 747 mmHg 60%
    18:00 +17°C° 0 mm 3 mps 747 mmHg 65%
    19:00 +16°C° 0 mm 2 mps 746 mmHg 70%
    20:00 +14°C° 0 mm 3 mps 746 mmHg 68%
    21:00 +14°C° 0 mm 4 mps 746 mmHg 66%
    22:00 +13°C° 0 mm 5 mps 746 mmHg 64%
    23:00 +13°C° 0 mm 5 mps 746 mmHg 67%
    Show more